Theta_e
307 307 307 307 307 307 307 307 307 307 306 306 306 306 307 307 307 305 301 299 293 291 292 295 296 292 294 293 288 292 289 287 288 281 282 282 284 286 285 288 287 284 285 285 285 284 281 295 295 290 296 302 305 306
306 307 307 307 307 306 307 306 306 304 304 305 306 306 306 306 307 307 299 300 301 295 294 299 300 302 300 299 295 294 290 290 293 285 283 286 284 287 286 283 292 286 289 285 284 286 294 297 296 300 302 303 304 305
306 307 306 306 306 306 306 305 305 305 305 305 305 306 306 306 307 306 301 300 294 290 293 293 294 300 302 303 303 293 289 295 294 295 289 288 285 290 285 287 289 293 297 291 289 293 295 297 300 301 302 302 305 306
305 305 305 305 305 305 305 304 304 304 304 304 304 305 306 307 307 306 300 300 297 295 290 292 301 298 304 303 301 299 294 296 296 295 291 289 287 294 290 289 290 292 293 291 292 295 295 299 299 300 302 303 303 304
303 302 302 302 302 303 303 303 303 303 303 303 304 305 306 305 306 304 301 301 301 295 291 292 297 300 301 301 300 299 298 296 294 290 291 289 294 294 294 290 290 295 291 288 287 294 293 295 299 302 301 301 303 303
300 300 300 300 300 301 302 302 302 302 302 301 303 303 304 305 306 300 297 302 302 299 295 287 294 296 300 300 300 297 298 297 295 293 293 291 295 293 288 286 292 295 296 296 293 297 297 298 300 301 300 301 303 303
299 299 299 299 300 300 300 301 301 302 302 302 303 304 304 305 303 296 297 301 305 305 296 289 288 298 302 299 298 298 300 297 295 295 293 291 292 292 289 283 291 295 296 297 298 299 296 297 296 300 301 303 305 304
298 298 299 299 299 299 300 300 300 301 303 303 303 304 305 305 303 298 300 305 306 301 298 286 286 290 301 294 292 298 295 296 297 293 291 291 292 292 286 291 293 296 296 297 298 299 299 301 301 301 302 302 302 303
297 297 298 298 299 299 300 300 300 302 303 303 304 305 301 299 300 303 308 308 307 301 292 290 280 280 299 297 298 296 294 289 295 291 291 291 286 283 292 294 295 296 293 297 297 300 301 298 299 301 300 301 301 302
296 297 297 298 298 298 299 300 303 304 303 304 302 299 297 299 308 307 301 297 297 297 296 289 291 286 298 293 293 293 291 288 283 290 295 285 283 294 295 299 298 298 298 297 298 297 299 298 298 300 300 301 303 304
296 296 297 297 298 298 299 301 302 302 302 295 291 292 297 303 300 298 293 291 292 290 293 291 291 288 296 292 289 291 286 287 283 288 291 287 286 293 297 300 300 299 298 299 302 302 303 302 299 300 301 303 304 304
296 296 297 297 298 298 300 301 302 294 292 292 294 298 297 295 293 291 289 293 292 288 291 290 292 293 294 298 288 288 284 287 283 293 288 282 290 297 299 300 299 299 298 300 303 303 303 304 304 302 303 304 306 308
296 296 297 297 298 299 302 301 301 300 298 298 295 292 291 291 286 286 283 288 289 293 296 295 293 296 294 296 291 287 282 282 289 280 281 287 293 298 298 300 298 298 298 300 301 303 303 304 305 304 303 305 306 306
295 296 297 298 299 299 298 298 298 296 294 292 291 285 286 284 286 287 288 291 297 299 298 295 293 294 294 290 291 286 289 287 284 278 280 289 294 298 298 301 299 297 297 298 299 301 302 303 302 303 303 303 303 303
295 296 297 298 298 298 298 298 299 294 291 288 290 283 286 290 293 294 295 294 298 300 298 295 293 293 289 290 291 287 284 279 277 278 283 292 296 297 298 299 299 298 297 298 299 301 302 301 299 300 301 301 301 302
296 296 296 299 298 298 298 297 294 294 293 290 288 285 288 287 289 291 291 291 298 299 300 298 291 289 288 288 285 283 280 278 280 285 291 294 297 300 298 299 299 299 299 298 300 300 300 301 298 297 299 300 299 298
296 291 296 298 298 298 298 292 292 292 290 289 287 291 289 289 289 291 293 293 299 296 291 296 289 288 290 285 282 283 282 284 288 291 295 296 296 297 300 300 300 301 299 300 301 301 300 300 298 297 295 296 298 297
289 291 296 297 296 295 292 294 291 289 285 287 286 288 288 289 289 290 293 295 293 296 297 293 293 286 283 282 281 289 290 293 295 296 297 298 299 299 300 298 302 301 302 300 301 301 299 297 296 295 295 296 296 296
293 294 296 297 296 292 287 291 291 285 286 288 290 292 292 292 294 295 296 297 297 299 297 296 293 287 287 291 291 294 296 298 297 298 299 301 301 301 300 299 301 301 302 301 301 298 298 297 295 296 295 295 293 294
297 297 297 298 297 289 286 286 292 288 285 287 289 288 289 290 293 293 294 295 294 294 294 293 292 292 291 294 296 296 297 299 298 296 297 300 302 301 298 297 299 302 300 302 302 298 297 296 296 296 295 293 292 291
293 293 295 293 289 289 287 286 285 286 287 286 289 286 286 289 288 290 291 293 289 290 291 294 295 298 297 296 297 298 298 300 298 299 297 296 298 300 300 299 299 300 299 298 298 297 296 295 296 296 295 293 294 293
289 295 289 291 288 288 285 288 286 287 285 285 285 285 283 283 284 286 289 287 288 290 291 294 297 297 299 296 298 298 300 300 299 299 297 297 299 298 298 298 297 296 298 298 299 299 297 298 297 297 294 293 292 292
293 292 289 289 284 282 279 287 284 285 283 284 285 284 284 283 286 290 286 288 290 294 296 296 296 298 298 301 301 299 300 300 299 300 301 299 300 301 300 299 297 298 297 297 298 299 299 294 294 296 295 294 293 293
295 288 285 283 282 276 285 282 284 284 285 282 282 281 282 283 287 285 284 286 292 296 295 295 297 298 298 298 297 299 299 298 298 298 300 298 297 297 299 298 299 301 301 299 298 298 298 297 295 297 295 294 293 294
280 275 280 272 282 280 281 281 282 281 280 282 281 282 282 285 281 282 282 287 289 292 293 295 296 296 296 297 296 296 298 297 297 297 298 300 298 300 300 300 300 302 303 299 297 297 297 297 296 295 294 293 292 293
274 279 274 280 279 279 281 278 279 279 280 281 282 286 285 283 283 282 287 288 289 290 292 294 294 294 295 298 296 296 299 299 298 298 297 300 300 300 298 297 298 297 302 302 298 297 296 296 295 293 292 291 289 292
275 274 280 284 281 281 279 280 280 279 279 280 282 283 282 280 282 285 288 289 290 292 294 297 297 296 296 298 300 301 299 301 299 299 300 301 303 302 301 298 297 300 303 302 300 299 296 294 294 293 292 292 291 291
281 282 278 281 281 280 279 279 279 279 281 285 284 280 280 282 283 287 290 291 295 295 294 296 296 296 301 299 297 298 298 301 302 301 300 299 300 300 302 302 301 292 303 302 300 300 298 297 295 294 292 291 289 290
281 283 283 279 280 280 280 279 280 282 284 284 281 282 285 286 285 286 287 288 291 289 288 289 291 294 294 296 294 292 291 292 296 295 294 294 294 295 298 298 299 300 298 295 288 294 298 298 296 294 293 291 290 290
281 284 281 281 280 279 281 284 283 285 286 286 286 287 289 285 285 287 286 286 286 286 287 288 290 290 289 289 288 290 291 290 289 290 292 295 298 298 299 298 297 296 296 296 293 290 288 293 291 293 291 290 288 286
285 285 282 282 282 283 285 286 287 287 286 285 287 285 285 285 285 286 285 286 287 287 286 286 287 288 289 288 287 287 287 290 290 290 289 292 297 300 301 301 298 295 295 294 294 295 294 293 292 291 290 288 287 286
284 283 283 282 282 285 287 284 283 283 284 285 283 286 287 283 279 283 285 285 285 285 285 286 285 287 289 290 290 289 287 288 287 288 290 291 292 295 299 300 298 296 294 293 293 293 293 291 289 289 288 287 286 285
284 286 287 286 281 282 284 283 283 282 283 281 280 283 281 279 277 282 286 287 285 286 286 287 289 289 290 290 289 289 288 288 286 285 285 285 286 288 293 295 296 296 295 294 293 292 290 289 287 286 285 284 282 282
Wind_Speed
16 17 17 17 17 17 16 16 17 17 18 17 17 16 16 14 13 4 4 4 3 5 12 15 12 7 6 4 3 6 6 5 4 7 3 3 3 4 4 3 6 2 2 3 3 6 3 18 15 10 8 12 13 16
17 17 16 15 15 15 15 15 16 20 20 17 17 16 16 15 14 9 5 3 2 5 8 10 15 21 23 25 5 2 1 1 2 3 2 4 3 3 4 3 6 3 5 3 3 2 8 5 8 9 11 11 14 15
18 17 15 14 14 14 14 16 18 18 17 17 17 17 17 17 15 9 4 2 1 4 8 4 7 9 7 15 10 3 1 0 2 1 3 3 4 2 3 1 3 4 2 1 5 6 8 7 10 11 14 14 14 15
15 15 16 16 16 16 15 16 19 18 17 18 18 18 18 17 14 11 5 2 2 4 4 7 3 9 2 9 11 5 6 2 2 2 3 3 4 4 3 2 2 3 6 6 3 4 10 4 12 12 16 14 15 16
15 17 18 19 18 17 17 17 19 19 19 20 21 20 18 17 15 10 7 7 9 3 4 7 11 7 7 13 11 8 6 4 2 2 3 4 3 3 2 0 2 1 4 3 4 8 5 12 13 15 14 17 19 20
17 17 18 19 19 18 18 18 20 20 21 22 22 23 21 18 13 3 4 3 7 7 4 5 5 4 3 7 9 8 6 3 2 3 3 4 5 1 2 3 4 5 1 1 5 10 9 13 10 10 14 19 20 19
17 18 18 19 19 19 19 21 22 22 22 22 22 22 20 15 4 4 3 1 2 4 3 5 5 5 8 4 3 3 6 3 3 3 3 4 3 3 1 2 5 4 1 5 5 8 7 5 8 16 17 18 18 16
17 18 18 19 19 20 20 22 24 25 25 25 25 23 20 15 7 5 6 10 5 3 2 3 6 5 5 3 3 4 3 3 5 4 2 3 3 1 2 7 5 3 5 5 9 7 8 11 10 10 11 13 17 10
17 18 18 19 20 20 21 22 23 25 26 28 27 19 2 2 2 2 2 6 2 2 3 3 2 5 1 3 2 1 3 2 2 4 4 5 1 3 6 3 2 5 3 7 10 11 8 5 8 8 8 9 11 11
17 18 18 19 20 20 21 22 23 20 24 25 3 0 2 2 6 1 3 1 1 2 2 5 3 5 2 1 1 2 2 3 1 5 1 3 4 4 2 6 6 5 4 6 7 10 9 7 5 8 8 9 8 8
16 17 19 19 20 20 20 20 19 20 10 5 4 3 4 13 1 3 3 3 3 4 4 5 7 4 3 3 4 2 2 2 2 4 1 2 3 4 3 4 4 2 4 7 6 6 9 8 5 7 8 9 10 10
16 17 18 19 20 18 18 18 14 5 2 5 7 6 3 2 3 3 4 4 6 5 5 5 6 6 4 3 3 2 1 1 4 3 1 2 4 5 3 4 4 2 4 4 5 9 10 14 9 4 6 7 8 8
17 18 19 20 19 18 14 13 15 17 12 2 2 3 2 3 3 6 6 5 4 4 4 4 3 5 2 3 2 3 1 5 2 4 3 3 2 4 4 5 5 2 6 6 7 5 8 11 13 12 11 12 12 13
18 20 21 20 14 12 16 18 19 10 4 3 3 4 5 5 6 6 5 3 5 2 5 4 3 4 3 3 3 3 4 3 2 2 5 3 5 6 4 2 4 3 4 6 7 4 9 9 10 12 13 12 9 13
18 20 21 9 11 15 18 19 17 2 2 4 4 6 8 7 5 4 6 5 6 5 1 2 1 5 2 3 2 1 1 3 5 6 4 4 6 3 5 2 3 4 4 4 5 6 6 9 10 9 8 8 11 12
18 19 2 14 19 21 23 13 4 4 3 4 6 5 5 3 4 3 3 4 5 2 2 3 2 5 4 5 4 6 5 6 6 4 4 4 6 5 4 5 5 3 5 4 3 4 6 9 6 5 8 11 13 10
14 3 17 21 23 24 25 3 2 6 5 5 6 5 7 8 9 9 6 5 2 2 3 4 5 7 3 3 3 4 6 5 4 3 4 5 6 5 6 6 4 5 7 6 3 5 5 6 5 7 9 10 9 11
4 7 18 22 17 12 2 3 3 5 7 6 4 5 3 4 7 7 7 7 3 3 4 5 2 3 5 6 4 5 4 3 4 4 5 5 6 7 7 6 6 4 6 6 6 4 5 5 6 6 8 7 8 11
9 10 18 23 13 5 3 4 3 5 7 5 6 6 6 6 7 9 8 9 7 6 4 2 2 4 5 5 5 5 5 4 6 5 5 8 8 7 7 5 6 7 6 6 6 4 3 4 4 6 6 7 8 9
19 19 18 17 12 2 4 5 3 5 5 5 4 7 4 5 6 5 6 6 4 3 4 6 7 6 5 5 5 5 5 4 4 3 4 4 4 4 6 5 4 7 5 7 8 6 4 3 4 6 7 7 9 9
8 4 5 6 3 5 4 4 5 5 5 3 4 3 5 4 5 5 3 2 2 3 2 4 5 5 6 5 5 5 5 7 6 7 5 4 4 4 3 3 6 5 5 6 6 5 4 4 3 5 7 7 7 8
5 7 3 4 4 4 5 5 5 5 4 4 7 5 4 4 4 4 4 2 3 4 4 4 5 5 6 6 6 7 8 7 5 5 6 5 4 5 4 4 6 5 6 8 8 7 5 4 5 7 9 7 8 6
9 3 3 4 4 3 8 3 5 5 4 4 6 6 4 4 5 3 3 3 4 4 7 9 9 10 8 11 4 4 7 7 7 8 9 7 5 5 5 4 5 8 6 4 6 7 7 6 8 9 8 7 7 7
2 2 4 3 5 5 4 4 4 3 3 3 4 11 11 6 5 4 6 2 6 10 11 15 11 10 5 4 4 4 5 5 5 6 7 7 5 4 5 5 5 7 10 7 7 8 8 7 9 9 9 8 8 7
1 7 3 6 5 4 5 4 4 5 9 6 5 5 5 1 2 3 4 5 9 9 12 11 10 9 7 4 3 2 1 5 6 8 5 8 5 4 5 5 5 8 9 9 8 10 8 8 8 8 8 9 10 9
4 5 6 4 4 2 2 5 3 7 11 4 5 4 4 3 3 3 4 6 7 8 10 10 9 10 11 6 3 3 4 2 5 5 3 8 10 10 8 8 8 3 4 9 11 13 11 10 10 10 9 10 10 10
5 6 5 4 3 4 5 5 6 5 7 4 3 5 4 5 4 2 0 2 3 7 10 7 9 8 7 8 8 8 5 3 3 4 5 5 4 6 8 10 11 8 7 10 11 15 13 12 11 10 9 7 9 9
6 4 8 6 6 3 7 2 3 3 4 1 1 3 2 2 2 4 5 9 8 8 9 10 10 10 6 8 8 9 10 9 7 7 6 5 4 2 3 4 6 11 10 10 11 12 12 13 12 12 11 10 7 8
4 4 3 9 6 4 5 5 6 5 3 1 1 3 3 4 5 5 7 9 7 7 8 9 10 9 10 8 9 11 11 11 10 11 9 4 4 5 5 3 6 8 7 6 6 10 14 13 13 12 12 9 8 9
5 4 4 3 3 5 5 5 4 3 2 5 3 1 5 3 4 7 7 8 9 8 8 7 7 8 8 8 9 13 10 9 7 6 4 3 3 1 3 1 3 4 6 9 9 8 13 13 13 11 10 8 6 6
3 2 4 4 4 6 8 5 4 4 3 4 3 1 5 4 2 6 10 8 7 7 8 8 9 9 9 10 10 9 8 10 12 11 7 5 4 5 5 2 2 5 8 9 10 11 13 12 11 12 11 10 9 7
3 4 2 3 4 5 3 3 3 4 0 5 5 3 4 4 5 6 9 9 9 9 9 9 8 8 8 6 7 6 7 7 9 10 13 9 9 10 7 2 4 5 5 7 8 10 14 14 11 12 12 13 12 11
4 3 3 3 3 3 2 2 1 4 7 5 7 6 4 4 4 4 5 7 6 7 7 7 6 6 9 10 10 8 8 8 14 17 17 15 14 14 11 10 8 9 11 9 10 11 14 16 14 15 14 13 12 11
Wind_Direction
294 296 296 299 300 301 303 305 307 309 312 313 315 313 312 313 310 299 257 224 175 257 277 262 268 259 273 229 279 314 331 1 348 13 345 330 312 313 308 316 319 314 260 275 243 232 303 0 346 47 323 321 318 317
297 297 297 300 303 304 304 305 305 315 315 308 310 309 309 309 307 301 268 198 177 246 265 304 266 250 244 248 267 226 237 264 305 353 342 304 304 298 288 316 329 12 338 335 4 292 275 311 342 309 318 344 323 314
305 307 306 304 306 307 303 302 305 310 311 310 312 308 303 304 300 297 270 235 223 256 272 254 261 271 210 220 185 164 233 314 34 8 302 279 282 279 293 324 281 268 332 258 204 215 335 317 323 334 340 329 309 292
312 318 319 316 312 310 307 309 308 311 313 314 311 307 304 302 301 295 264 201 191 276 277 282 294 275 189 155 163 132 134 148 165 231 253 263 261 226 305 276 307 251 322 302 258 287 322 243 327 335 309 307 319 338
326 324 321 317 317 319 319 314 312 314 315 312 312 311 311 310 302 291 260 230 212 243 288 291 304 258 180 155 149 150 147 143 183 265 227 247 251 274 281 30 249 306 272 342 285 325 300 300 319 318 327 338 336 331
321 320 322 321 322 321 319 315 313 315 313 310 309 308 308 304 310 297 291 169 191 185 284 302 289 307 108 147 152 164 167 170 180 220 250 267 263 135 318 277 253 245 196 124 287 306 294 291 300 301 340 330 315 315
326 323 323 323 324 322 321 318 316 315 313 309 304 299 296 293 266 225 269 183 102 179 268 292 289 273 160 134 191 188 187 190 197 239 229 234 272 121 265 271 279 315 335 308 294 311 303 290 310 324 327 308 305 314
327 325 325 327 327 325 322 319 317 316 311 308 303 299 293 280 262 258 249 250 180 212 235 268 273 324 164 177 243 159 187 180 206 217 268 221 316 166 269 267 313 359 318 312 308 294 268 287 297 292 294 304 323 323
324 326 328 327 327 327 327 324 319 313 307 302 300 305 70 95 200 306 85 96 67 189 250 230 211 264 255 222 238 298 164 249 187 211 233 124 227 203 217 295 312 290 298 292 301 307 295 296 297 292 301 311 322 332
325 327 327 328 327 329 327 322 326 324 309 309 333 120 115 72 304 268 8 112 127 241 259 251 215 266 255 52 317 264 203 238 297 243 233 118 243 247 227 147 187 258 304 319 331 327 312 300 287 298 311 308 318 330
324 326 326 328 327 327 324 319 324 335 345 6 2 1 310 295 226 203 210 186 172 230 217 231 205 214 260 160 213 188 243 290 298 296 341 303 308 265 111 167 219 247 280 310 300 304 335 306 267 297 305 314 319 324
324 326 326 327 325 324 314 316 343 359 283 259 281 293 278 283 249 244 220 202 198 235 212 198 202 186 253 102 97 311 179 1 263 340 19 260 262 305 128 163 97 149 229 354 343 352 12 18 11 343 338 328 339 351
324 325 327 325 320 315 319 330 325 315 313 283 205 236 205 229 232 212 211 227 216 217 200 206 185 155 70 96 97 78 30 242 337 26 240 221 256 336 169 140 111 108 33 4 3 360 28 29 25 29 13 14 19 43
322 324 323 322 317 337 328 322 319 326 292 265 239 245 204 214 237 202 211 223 253 252 257 186 166 141 151 106 141 132 241 51 305 300 248 218 189 236 237 182 133 120 75 18 359 61 31 26 34 30 22 6 20 37
320 321 318 314 326 326 328 322 311 268 260 266 259 242 218 221 260 255 241 269 272 257 178 245 49 105 145 129 171 127 17 272 209 233 233 209 215 252 195 216 177 149 91 46 9 4 40 59 37 42 38 18 41 41
323 319 203 348 340 337 324 320 284 184 240 232 233 279 284 286 272 313 292 292 301 307 27 22 254 140 176 153 131 208 158 222 247 212 237 171 167 181 217 214 223 111 117 83 50 49 54 88 70 35 26 37 42 42
320 234 327 324 326 323 310 244 253 223 229 236 244 233 250 273 267 274 271 260 312 70 156 173 264 212 126 133 176 180 206 214 215 217 228 207 204 195 247 217 214 149 129 127 102 83 79 102 95 61 52 35 39 49
249 284 308 312 323 312 269 215 241 247 248 247 245 258 236 230 268 272 264 265 188 223 167 214 258 178 185 170 229 213 233 260 242 231 199 197 204 223 237 215 187 175 122 123 122 85 70 59 93 73 60 37 45 47
289 298 301 303 307 309 281 263 201 259 236 250 252 250 246 255 248 254 268 275 257 242 156 99 198 232 208 213 190 180 191 185 220 215 198 210 204 204 221 229 157 130 127 126 94 105 89 77 79 89 68 55 53 45
298 292 292 288 299 235 264 264 248 259 259 245 276 282 254 251 267 248 269 274 272 256 187 182 194 227 200 212 192 193 200 159 128 142 191 202 184 167 205 173 149 138 135 97 121 137 114 71 56 89 81 74 67 53
306 265 326 345 271 207 252 274 267 244 266 282 296 343 276 327 298 285 287 292 329 228 254 249 232 235 226 230 209 195 184 171 172 177 187 200 210 168 230 147 133 146 150 135 146 142 130 141 129 100 94 81 77 76
248 288 270 227 227 244 234 231 236 290 312 274 293 269 261 289 290 279 268 220 222 242 231 243 264 238 247 243 231 192 204 193 175 154 171 169 170 165 175 192 137 163 167 152 146 153 147 135 111 103 98 90 76 69
268 213 223 247 249 230 254 193 237 218 250 282 348 341 309 309 269 302 277 288 278 276 311 280 257 244 237 247 183 186 176 161 170 176 178 189 184 169 170 170 140 139 132 140 142 148 146 140 127 122 120 110 99 84
130 236 256 247 211 257 269 258 257 269 251 252 271 284 277 263 264 282 267 336 13 343 353 344 352 351 310 66 126 199 228 195 179 160 170 146 148 167 161 134 135 150 149 146 140 139 143 136 131 135 131 125 114 110
307 267 204 268 260 222 246 240 239 318 329 333 269 239 255 298 288 272 281 14 345 350 345 344 358 339 313 294 358 319 38 168 162 166 158 139 118 120 115 101 123 152 143 133 135 144 142 133 133 134 135 130 129 125
253 242 180 237 260 274 351 11 343 325 318 272 280 295 337 290 237 42 55 350 339 336 333 342 342 347 343 360 276 29 318 74 102 123 149 157 156 146 143 166 155 202 176 150 137 139 140 141 140 138 136 132 127 131
243 268 244 241 242 286 285 293 308 288 300 283 288 14 322 327 7 71 167 289 316 336 327 333 352 345 317 330 348 1 352 47 148 169 134 128 123 145 147 147 159 176 167 159 146 147 147 149 148 148 140 135 146 144
240 272 264 268 270 250 275 281 289 260 250 118 141 262 250 270 342 22 13 346 337 350 344 352 357 341 18 15 17 21 14 6 40 58 58 41 40 47 141 159 169 158 166 164 153 148 150 153 151 150 146 141 131 126
248 268 313 270 264 237 234 227 216 214 218 94 129 296 330 54 333 348 358 351 350 7 358 356 358 344 1 5 33 37 29 17 29 50 54 41 19 3 14 6 145 139 135 133 126 145 148 146 146 146 145 140 134 130
254 216 247 249 234 240 224 205 241 262 244 243 247 297 97 100 22 13 10 9 6 6 354 347 356 0 13 12 25 32 30 27 19 21 13 3 333 255 45 73 151 133 141 130 120 107 107 112 113 120 126 129 125 125
260 258 238 225 242 256 251 235 238 248 234 235 252 234 115 133 117 35 10 355 357 1 359 9 11 7 13 27 32 28 20 11 5 6 352 303 283 318 318 71 259 166 128 130 135 131 136 136 136 137 136 133 135 129
238 236 266 276 273 272 278 208 200 203 339 44 29 12 86 69 48 14 1 353 353 4 359 1 2 11 19 22 21 22 14 8 7 8 17 25 17 2 355 319 161 166 143 145 137 134 133 135 132 133 130 125 117 115
267 276 227 260 281 283 279 110 315 72 55 51 30 20 43 67 75 5 337 356 356 12 16 12 15 13 23 30 31 27 19 21 21 24 21 22 33 27 35 33 36 68 82 91 99 108 115 117 117 117 117 115 111 111